Time,TemperatureF,DewpointF,PressureIn,WindDirection,WindDirectionDegrees,WindSpeedMPH,WindSpeedGustMPH,Humidity,HourlyPrecipIn,Conditions,Clouds,dailyrainin,SoftwareType,DateUTC
2013-01-25 00:14:00,23.2,12.0,30.53,NNW,342,0.0,2.0,62,0.00,,,0.00,weatherlink.com 1.10,2013-01-25 05:14:00,
2013-01-25 00:29:00,23.5,11.0,30.52,NNW,328,0.0,2.0,60,0.00,,,0.00,weatherlink.com 1.10,2013-01-25 05:29:00,
2013-01-25 00:45:00,23.6,11.0,30.53,WNW,293,0.0,2.0,59,0.00,,,0.00,weatherlink.com 1.10,2013-01-25 05:45:00,
2013-01-25 01:00:00,23.6,11.0,30.53,WNW,298,0.0,2.0,58,0.00,,,0.00,weatherlink.com 1.10,2013-01-25 06:00:00,
2013-01-25 01:30:00,23.5,11.0,30.52,WNW,291,0.0,1.0,59,0.00,,,0.00,weatherlink.com 1.10,2013-01-25 06:30:00,
2013-01-25 01:45:00,23.6,11.0,30.52,NW,311,0.0,1.0,60,0.00,,,0.00,weatherlink.com 1.10,2013-01-25 06:45:00,
2013-01-25 02:00:00,23.6,11.0,30.53,WSW,256,0.0,1.0,59,0.00,,,0.00,weatherlink.com 1.10,2013-01-25 07:00:00,
2013-01-25 02:15:00,23.6,11.0,30.53,WNW,296,0.0,2.0,60,0.00,,,0.00,weatherlink.com 1.10,2013-01-25 07:15:00,
2013-01-25 02:30:00,23.4,12.0,30.52,WNW,285,0.0,3.0,61,0.00,,,0.00,weatherlink.com 1.10,2013-01-25 07:30:00,
2013-01-25 02:45:00,22.9,12.0,30.54,WNW,285,1.0,2.0,62,0.00,,,0.00,weatherlink.com 1.10,2013-01-25 07:45:00,
2013-01-25 03:00:00,22.9,12.0,30.54,WNW,294,1.0,3.0,62,0.00,,,0.00,weatherlink.com 1.10,2013-01-25 08:00:00,
2013-01-25 03:15:00,22.8,12.0,30.53,WNW,297,0.0,1.0,64,0.00,,,0.00,weatherlink.com 1.10,2013-01-25 08:15:00,
2013-01-25 03:30:00,22.6,12.0,30.53,NW,316,1.0,2.0,63,0.00,,,0.00,weatherlink.com 1.10,2013-01-25 08:30:00,
2013-01-25 03:45:00,22.3,12.0,30.52,WNW,300,1.0,2.0,64,0.00,,,0.00,weatherlink.com 1.10,2013-01-25 08:45:00,
2013-01-25 04:00:00,22.0,12.0,30.53,WNW,293,1.0,2.0,66,0.00,,,0.00,weatherlink.com 1.10,2013-01-25 09:00:00,
2013-01-25 04:15:00,21.9,12.0,30.52,WNW,295,0.0,3.0,66,0.00,,,0.00,weatherlink.com 1.10,2013-01-25 09:15:00,
2013-01-25 04:30:00,22.0,12.0,30.52,NNW,340,1.0,3.0,65,0.00,,,0.00,weatherlink.com 1.10,2013-01-25 09:30:00,
2013-01-25 04:45:00,21.9,12.0,30.52,WNW,293,1.0,2.0,66,0.00,,,0.00,weatherlink.com 1.10,2013-01-25 09:45:00,
2013-01-25 05:00:00,21.7,12.0,30.52,WNW,298,1.0,2.0,67,0.00,,,0.00,weatherlink.com 1.10,2013-01-25 10:00:00,
2013-01-25 05:15:00,21.8,12.0,30.51,WNW,297,0.0,2.0,67,0.00,,,0.00,weatherlink.com 1.10,2013-01-25 10:15:00,
2013-01-25 05:30:00,22.3,12.0,30.50,West,280,1.0,3.0,66,0.00,,,0.00,weatherlink.com 1.10,2013-01-25 10:30:00,
2013-01-25 05:45:00,22.8,13.0,30.51,NW,323,1.0,3.0,65,0.00,,,0.00,weatherlink.com 1.10,2013-01-25 10:45:00,
2013-01-25 06:00:00,23.0,13.0,30.52,North,350,0.0,3.0,65,0.00,,,0.00,weatherlink.com 1.10,2013-01-25 11:00:00,
2013-01-25 06:15:00,23.2,13.0,30.52,WNW,297,1.0,2.0,66,0.00,,,0.00,weatherlink.com 1.10,2013-01-25 11:15:00,
2013-01-25 06:30:00,23.2,13.0,30.52,WNW,296,1.0,3.0,66,0.00,,,0.00,weatherlink.com 1.10,2013-01-25 11:30:00,
2013-01-25 06:45:00,23.0,13.0,30.52,NW,312,0.0,4.0,66,0.00,,,0.00,weatherlink.com 1.10,2013-01-25 11:45:00,
2013-01-25 07:00:00,22.8,13.0,30.52,WNW,291,1.0,3.0,67,0.00,,,0.00,weatherlink.com 1.10,2013-01-25 12:00:00,
2013-01-25 07:15:00,22.7,14.0,30.51,NW,305,0.0,3.0,68,0.00,,,0.00,weatherlink.com 1.10,2013-01-25 12:15:00,
2013-01-25 07:30:00,22.9,14.0,30.51,WNW,298,0.0,3.0,68,0.00,,,0.00,weatherlink.com 1.10,2013-01-25 12:30:00,
2013-01-25 07:45:00,23.1,14.0,30.51,WNW,301,1.0,4.0,67,0.00,,,0.00,weatherlink.com 1.10,2013-01-25 12:45:00,
2013-01-25 08:00:00,23.6,13.0,30.51,WNW,289,1.0,3.0,65,0.00,,,0.00,weatherlink.com 1.10,2013-01-25 13:00:00,
2013-01-25 08:15:00,24.5,14.0,30.49,NW,304,0.0,3.0,64,0.00,,,0.00,weatherlink.com 1.10,2013-01-25 13:15:00,
2013-01-25 08:30:00,25.0,14.0,30.50,WNW,298,0.0,4.0,64,0.00,,,0.00,weatherlink.com 1.10,2013-01-25 13:30:00,
2013-01-25 08:45:00,25.7,15.0,30.50,NW,309,0.0,4.0,65,0.00,,,0.00,weatherlink.com 1.10,2013-01-25 13:45:00,
2013-01-25 09:01:00,26.7,16.0,30.50,North,11,1.0,4.0,64,0.00,,,0.00,weatherlink.com 1.10,2013-01-25 14:01:00,
2013-01-25 09:15:00,28.1,16.0,30.49,North,356,0.0,4.0,61,0.00,,,0.00,weatherlink.com 1.10,2013-01-25 14:15:00,
2013-01-25 09:30:00,29.5,17.0,30.49,East,96,0.0,3.0,61,0.00,,,0.00,weatherlink.com 1.10,2013-01-25 14:30:00,
2013-01-25 09:45:00,30.4,17.0,30.49,WNW,297,0.0,3.0,59,0.00,,,0.00,weatherlink.com 1.10,2013-01-25 14:45:00,
2013-01-25 10:00:00,31.6,20.0,30.47,East,83,1.0,5.0,63,0.00,,,0.00,weatherlink.com 1.10,2013-01-25 15:00:00,
2013-01-25 10:15:00,31.7,21.0,30.47,East,82,4.0,9.0,64,0.00,,,0.00,weatherlink.com 1.10,2013-01-25 15:15:00,
2013-01-25 10:30:00,31.4,21.0,30.47,East,101,8.0,8.0,66,0.00,,,0.00,weatherlink.com 1.10,2013-01-25 15:30:00,
2013-01-25 10:46:00,32.9,23.0,30.45,NE,55,3.0,7.0,68,0.00,,,0.00,weatherlink.com 1.10,2013-01-25 15:46:00,
2013-01-25 11:01:00,32.8,23.0,30.45,East,84,5.0,7.0,68,0.00,,,0.00,weatherlink.com 1.10,2013-01-25 16:01:00,
2013-01-25 11:16:00,32.9,24.0,30.45,East,80,3.0,10.0,71,0.00,,,0.00,weatherlink.com 1.10,2013-01-25 16:16:00,
2013-01-25 11:31:00,33.6,24.0,30.45,East,81,3.0,5.0,68,0.00,,,0.00,weatherlink.com 1.10,2013-01-25 16:31:00,
2013-01-25 11:46:00,33.6,25.0,30.42,ENE,70,6.0,7.0,70,0.00,,,0.00,weatherlink.com 1.10,2013-01-25 16:46:00,
2013-01-25 12:01:00,34.3,26.0,30.40,East,96,3.0,8.0,72,0.00,,,0.00,weatherlink.com 1.10,2013-01-25 17:01:00,
2013-01-25 12:16:00,33.9,26.0,30.38,ENE,77,3.0,8.0,72,0.00,,,0.00,weatherlink.com 1.10,2013-01-25 17:16:00,
2013-01-25 12:31:00,33.7,26.0,30.37,NE,54,2.0,7.0,72,0.00,,,0.00,weatherlink.com 1.10,2013-01-25 17:31:00,
2013-01-25 12:46:00,33.7,25.0,30.35,East,100,1.0,6.0,71,0.00,,,0.00,weatherlink.com 1.10,2013-01-25 17:46:00,
2013-01-25 13:01:00,33.8,26.0,30.34,NE,51,2.0,5.0,73,0.00,,,0.00,weatherlink.com 1.10,2013-01-25 18:01:00,
2013-01-25 13:16:00,33.9,26.0,30.33,ESE,115,3.0,5.0,74,0.00,,,0.00,weatherlink.com 1.10,2013-01-25 18:16:00,
2013-01-25 13:31:00,33.6,25.0,30.33,NNE,19,0.0,3.0,71,0.00,,,0.00,weatherlink.com 1.10,2013-01-25 18:31:00,
2013-01-25 13:46:00,33.9,26.0,30.31,East,87,4.0,5.0,72,0.00,,,0.00,weatherlink.com 1.10,2013-01-25 18:46:00,
2013-01-25 14:01:00,33.6,26.0,30.27,East,85,6.0,7.0,73,0.00,,,0.00,weatherlink.com 1.10,2013-01-25 19:01:00,
2013-01-25 14:16:00,33.7,27.0,30.25,East,89,9.0,9.0,76,0.00,,,0.00,weatherlink.com 1.10,2013-01-25 19:16:00,
2013-01-25 14:32:00,33.5,27.0,30.25,ESE,107,5.0,7.0,78,0.00,,,0.00,weatherlink.com 1.10,2013-01-25 19:32:00,
2013-01-25 14:46:00,33.5,27.0,30.26,ENE,72,1.0,1.0,77,0.00,,,0.00,weatherlink.com 1.10,2013-01-25 19:46:00,
2013-01-25 15:02:00,33.5,27.0,30.25,NNE,15,0.0,2.0,77,0.00,,,0.00,weatherlink.com 1.10,2013-01-25 20:02:00,
2013-01-25 15:16:00,33.6,27.0,30.23,ENE,60,0.0,3.0,78,0.00,,,0.00,weatherlink.com 1.10,2013-01-25 20:16:00,
2013-01-25 15:31:00,34.1,29.0,30.22,NE,49,2.0,9.0,81,0.00,,,0.00,weatherlink.com 1.10,2013-01-25 20:31:00,
2013-01-25 15:46:00,34.1,29.0,30.22,ENE,77,0.0,3.0,80,0.00,,,0.00,weatherlink.com 1.10,2013-01-25 20:46:00,
2013-01-25 16:01:00,33.9,28.0,30.24,NW,311,0.0,2.0,80,0.00,,,0.00,weatherlink.com 1.10,2013-01-25 21:01:00,
2013-01-25 16:16:00,33.2,27.0,30.24,NW,306,0.0,2.0,79,0.00,,,0.00,weatherlink.com 1.10,2013-01-25 21:16:00,
2013-01-25 16:31:00,32.3,27.0,30.22,North,355,0.0,2.0,80,0.00,,,0.00,weatherlink.com 1.10,2013-01-25 21:31:00,
2013-01-25 16:46:00,31.4,27.0,30.21,NW,309,0.0,1.0,84,0.01,,,0.01,weatherlink.com 1.10,2013-01-25 21:46:00,
2013-01-25 17:01:00,31.2,28.0,30.20,North,352,0.0,1.0,87,0.04,,,0.04,weatherlink.com 1.10,2013-01-25 22:01:00,
2013-01-25 17:16:00,31.4,29.0,30.20,North,4,0.0,0.0,89,0.06,,,0.06,weatherlink.com 1.10,2013-01-25 22:16:00,
2013-01-25 17:31:00,31.4,29.0,30.18,North,352,0.0,2.0,89,0.08,,,0.08,weatherlink.com 1.10,2013-01-25 22:31:00,
2013-01-25 17:47:00,31.5,29.0,30.16,East,100,1.0,1.0,90,0.09,,,0.10,weatherlink.com 1.10,2013-01-25 22:47:00,
2013-01-25 18:02:00,31.7,29.0,30.15,East,86,1.0,1.0,91,0.07,,,0.11,weatherlink.com 1.10,2013-01-25 23:02:00,
2013-01-25 18:17:00,31.8,30.0,30.14,NE,51,0.0,1.0,92,0.05,,,0.11,weatherlink.com 1.10,2013-01-25 23:17:00,
2013-01-25 18:32:00,32.3,31.0,30.13,ENE,69,0.0,2.0,93,0.03,,,0.11,weatherlink.com 1.10,2013-01-25 23:32:00,
2013-01-25 18:47:00,32.6,31.0,30.13,WSW,249,1.0,5.0,93,0.01,,,0.11,weatherlink.com 1.10,2013-01-25 23:47:00,
2013-01-25 19:17:00,32.5,31.0,30.13,East,84,0.0,4.0,94,0.00,,,0.11,weatherlink.com 1.10,2013-01-26 00:17:00,
2013-01-25 19:32:00,32.4,31.0,30.15,West,271,0.0,6.0,95,0.00,,,0.11,weatherlink.com 1.10,2013-01-26 00:32:00,
2013-01-25 19:47:00,32.5,31.0,30.14,East,83,0.0,6.0,95,0.00,,,0.11,weatherlink.com 1.10,2013-01-26 00:47:00,
2013-01-25 20:02:00,32.4,31.0,30.13,NNE,22,0.0,2.0,95,0.00,,,0.11,weatherlink.com 1.10,2013-01-26 01:02:00,
2013-01-25 20:17:00,32.4,31.0,30.14,WNW,298,1.0,2.0,95,0.00,,,0.11,weatherlink.com 1.10,2013-01-26 01:17:00,
2013-01-25 20:32:00,32.3,31.0,30.14,WNW,290,1.0,3.0,95,0.00,,,0.11,weatherlink.com 1.10,2013-01-26 01:32:00,
2013-01-25 20:47:00,32.3,31.0,30.14,WNW,291,0.0,3.0,95,0.00,,,0.11,weatherlink.com 1.10,2013-01-26 01:47:00,
2013-01-25 21:02:00,32.2,31.0,30.15,WNW,291,0.0,4.0,95,0.00,,,0.11,weatherlink.com 1.10,2013-01-26 02:02:00,
2013-01-25 21:17:00,32.3,31.0,30.15,WSW,257,2.0,3.0,96,0.00,,,0.11,weatherlink.com 1.10,2013-01-26 02:17:00,
2013-01-25 21:32:00,32.2,31.0,30.16,NNE,21,1.0,3.0,96,0.00,,,0.11,weatherlink.com 1.10,2013-01-26 02:32:00,
2013-01-25 21:47:00,32.1,31.0,30.16,WNW,283,2.0,2.0,96,0.00,,,0.11,weatherlink.com 1.10,2013-01-26 02:47:00,
2013-01-25 22:02:00,31.8,31.0,30.15,WNW,293,0.0,2.0,96,0.00,,,0.11,weatherlink.com 1.10,2013-01-26 03:02:00,
2013-01-25 22:17:00,31.6,30.0,30.14,WNW,293,1.0,2.0,95,0.00,,,0.11,weatherlink.com 1.10,2013-01-26 03:17:00,
2013-01-25 22:32:00,31.5,31.0,30.14,WNW,301,0.0,1.0,96,0.00,,,0.11,weatherlink.com 1.10,2013-01-26 03:32:00,
2013-01-25 22:47:00,31.6,31.0,30.14,West,273,0.0,2.0,96,0.00,,,0.11,weatherlink.com 1.10,2013-01-26 03:47:00,
2013-01-25 23:02:00,31.7,31.0,30.15,NW,307,0.0,1.0,96,0.00,,,0.11,weatherlink.com 1.10,2013-01-26 04:02:00,
2013-01-25 23:17:00,32.0,31.0,30.15,NE,34,0.0,1.0,96,0.00,,,0.11,weatherlink.com 1.10,2013-01-26 04:17:00,
2013-01-25 23:32:00,32.1,31.0,30.15,WNW,287,1.0,2.0,96,0.00,,,0.11,weatherlink.com 1.10,2013-01-26 04:32:00,
2013-01-25 23:47:00,32.1,31.0,30.15,WNW,291,0.0,2.0,96,0.00,,,0.11,weatherlink.com 1.10,2013-01-26 04:47:00,